This is the latest recevied weather packets stored in our database for station/object N1JOV-7. If no packets are shown the sender has not sent any weather packets the latest 10 day(s).
| Time | Temp. | Humidity | Pressure | Rain* | Wind** | Luminosity | Snow |
|---|---|---|---|---|---|---|---|
| 1788130862 | 22.22° C | 74% | 1014.8 hPa | 0 mm | - | - | - |
| 1788130261 | 22.22° C | 74% | 1014.9 hPa | 0 mm | - | - | - |
| 1788129661 | 22.22° C | 74% | 1015.1 hPa | 0 mm | - | - | - |
| 1788129061 | 22.22° C | 74% | 1015 hPa | 0 mm | - | - | - |
| 1788128461 | 22.22° C | 74% | 1014.9 hPa | 0 mm | - | - | - |
| 1788127861 | 22.22° C | 74% | 1015 hPa | 0 mm | - | - | - |
| 1788127262 | 22.22° C | 74% | 1015 hPa | 0 mm | - | - | - |
| 1788126662 | 22.22° C | 73% | 1015.1 hPa | 0 mm | - | - | - |
| 1788126062 | 22.22° C | 73% | 1015 hPa | 0 mm | - | - | - |
| 1788125462 | 22.22° C | 73% | 1015 hPa | 0 mm | - | - | - |
| 1788124862 | 22.78° C | 72% | 1015.1 hPa | 0 mm | - | - | - |
| 1788124262 | 23.33° C | 72% | 1014.9 hPa | 0 mm | - | - | - |
| 1788123662 | 22.78° C | 72% | 1015 hPa | 0 mm | - | - | - |
| 1788123061 | 23.33° C | 71% | 1015 hPa | 0 mm | - | - | - |
| 1788122461 | 23.89° C | 69% | 1015 hPa | 0 mm | - | - | - |
| 1788121861 | 23.89° C | 68% | 1015.2 hPa | 0 mm | - | - | - |
| 1788121261 | 24.44° C | 67% | 1015 hPa | 0 mm | - | - | - |
| 1788120662 | 24.44° C | 67% | 1015.1 hPa | 0 mm | - | - | - |
| 1788120062 | 24.44° C | 66% | 1015.3 hPa | 0 mm | - | - | - |
| 1788119462 | 23.89° C | 67% | 1015.3 hPa | 0 mm | - | - | - |
| 1788118862 | 23.89° C | 67% | 1015.6 hPa | 0 mm | - | - | - |
| 1788118262 | 23.89° C | 67% | 1015.7 hPa | 0 mm | - | - | - |
| 1788117662 | 24.44° C | 66% | 1015.5 hPa | 0 mm | - | - | - |
| 1788117061 | 24.44° C | 66% | 1015.6 hPa | 0 mm | - | - | - |
| 1788116461 | 24.44° C | 66% | 1016.1 hPa | 0 mm | - | - | - |
* Rain latest hour (hover to see other rain measurements)
** Current wind speed in m/s (hover to see current wind gust speed)